Weather Roundup
Issued by NWS

Home | Current Version | Previous Version | Text Only | Print | Product List | Glossary On
Versions: 1 2 3 4 5 6 7 8 9 10 11 12 13 14 15 16 17 18 19 20 21 22 23 24 25 26 27 28 29 30 31 32 33 34 35 36 37 38 39 40 41 42 43 44 45 46 47 48 49 50
247
NZUS93 KARX 222010
HRRWXR

CURRENT HOURLY OBSERVATIONS ACROSS
MUCH OF THE UPPER MISSISSIPPI VALLEY
NATIONAL WEATHER SERVICE LA CROSSE WI
300 PM CDT TUE MAY 22 2018


...SOUTHEAST MINNESOTA...


CITY           SKY/WX    TMP DP  RH WIND       PRES   REMARKS
ROCHESTER      PTSUNNY   71  61  70 MISG      30.07S
ROCHESTER/MAYO MOCLDY    69  56  62 CALM      30.06S
WINONA         CLOUDY    63  55  77 CALM      30.05S
AUSTIN         FAIR      72  55  56 CALM      30.05F
ALBERT LEA     FAIR      72  55  56 CALM      30.04F
DODGE CENTER   FAIR      70  57  64 E5        30.06S
PRESTON        PTSUNNY   65  57  73 E3        30.07F
OWATONNA       FAIR      73  61  64 SE9       30.05S
FARIBAULT      PTSUNNY   73  55  53 CALM      30.04F
$$

...ELSEWHERE IN MINNESOTA...


CITY           SKY/WX    TMP DP  RH WIND       PRES   REMARKS
MINNEAPOLIS    CLOUDY    73  58  59 CALM      30.04S
INTNL FALLS    FAIR      77  41  27 SW6       29.99F
DULUTH         PTSUNNY   74  54  49 SW8       30.02F
RED WING       FAIR      72  54  53 S6        30.04S
REDWOOD FALLS  PTSUNNY   75  61  61 S12       30.00F
MANKATO        CLOUDY    76  57  51 SE13      30.02F
WORTHINGTON    PTSUNNY   78  62  57 SE10      30.01F
FAIRMONT       MOSUNNY   77  58  51 SE8       30.02F
$$

...SOUTHWEST WISCONSIN...


CITY           SKY/WX    TMP DP  RH WIND       PRES   REMARKS
LA CROSSE      CLOUDY    66  57  72 W6        30.07S
PRAIRIE DU CHI CLOUDY    69  56  65 CALM      30.06S
BOSCOBEL       CLOUDY    69  59  70 NE5       30.07F
LONE ROCK      CLOUDY    65  60  84 S3        30.07F
PLATTEVILLE    CLOUDY    67  62  83 N3        30.07F
FORT MC COY    CLOUDY    62  56  80 E3        30.08S
CAMP DOUGLAS   CLOUDY    64  59  82 CALM      30.06F
MAUSTON-NEW LI CLOUDY    64  57  79 CALM      30.06F HAZE
VIROQUA        CLOUDY    63  59  87 SW3       30.08S
WIS DELLS      CLOUDY    64  56  75 CALM      30.07F
$$

...ELSEWHERE IN WISCONSIN...


CITY           SKY/WX    TMP DP  RH WIND       PRES   REMARKS
MILWAUKEE      FAIR      65  57  75 E3        30.06F
MADISON        CLOUDY    66  57  72 VRB3      30.06F HAZE
GREEN BAY      FAIR      72  58  61 CALM      30.04F
EAU CLAIRE     CLOUDY    66  56  70 CALM      30.05F
BLACK RVR FLS  CLOUDY    64  54  69 CALM      30.07S
MEDFORD        FAIR      69  55  60 W8        30.05F
WAUSAU         PTSUNNY   69  57  65 SW7       30.03F
WIS RAPIDS     CLOUDY    68  57  68 S6        30.07F
MARSHFIELD     FAIR      67  56  67 SW5       30.05F
RICE LAKE      PTSUNNY   70  55  57 CALM      30.06F
$$

...NORTHEAST IOWA...


CITY           SKY/WX    TMP DP  RH WIND       PRES   REMARKS
WATERLOO       FAIR      74  59  59 VRB3      30.03F
DUBUQUE        PTSUNNY   69  58  67 N5        30.06F
DECORAH        CLOUDY    66  59  77 VRB3G12   30.06F
MASON CITY     SUNNY     79  58  48 MISG      30.03F
CHARLES CITY   PTSUNNY   75  57  53 CALM      30.05S
OELWEIN        FAIR      70  59  68 CALM      30.07F
$$

...ELSEWHERE IN IOWA...


CITY           SKY/WX    TMP DP  RH WIND       PRES   REMARKS
DES MOINES     PTSUNNY   77  64  64 S9        30.01F
IOWA CITY      FAIR      76  61  59 NW6       30.05F
FORT DODGE     PTSUNNY   77  63  61 SE6       30.02F
MARSHALLTOWN   MOSUNNY   77  63  61 CALM      30.02F
CEDAR RAPIDS   FAIR      75  60  59 MISG      30.04F
$$

...NORTHERN ILLINOIS...


CITY           SKY/WX    TMP DP  RH WIND       PRES   REMARKS
CHICAGO-OHARE  CLOUDY    64  55  72 NE5       30.06S
CHICAGO-MIDWAY CLOUDY    64  56  75 VRB6      30.06S
MOLINE         FAIR      75  61  61 NW6       30.05F
ROCKFORD       CLOUDY    68  60  75 N9        30.07F
PEORIA         FAIR      78  62  57 NW8       30.05F
$$

NOTE: "FAIR" INDICATES FEW OR NO CLOUDS BELOW 12,000 FEET WITH NO
SIGNIFICANT WEATHER AND/OR OBSTRUCTIONS TO VISIBILITY. WIND
SPEEDS ARE IN MILES-PER-HOUR.




USA.gov is the U.S. government's official web portal to all federal, state and local government web resources and services.